TimeEDT,TemperatureF,Dew PointF,Humidity,Sea Level PressureIn,VisibilityMPH,Wind Direction,Wind SpeedMPH,Gust SpeedMPH,PrecipitationIn,Events,Conditions,WindDirDegrees,DateUTC
12:51 AM,47.8,38.8,71,29.57,10.0,Calm,Calm,-,N/A,,Overcast,0,2012-11-01 04:51:00
1:51 AM,46.9,38.8,73,29.56,10.0,Calm,Calm,-,N/A,,Overcast,0,2012-11-01 05:51:00
2:51 AM,46.9,38.8,73,29.55,10.0,Calm,Calm,-,N/A,,Overcast,0,2012-11-01 06:51:00
3:51 AM,46.9,38.8,73,29.54,10.0,Calm,Calm,-,N/A,,Overcast,0,2012-11-01 07:51:00
4:51 AM,43.9,39.9,86,29.54,10.0,Calm,Calm,-,N/A,,Clear,0,2012-11-01 08:51:00
5:51 AM,41.0,38.8,92,29.55,10.0,Calm,Calm,-,N/A,,Partly Cloudy,0,2012-11-01 09:51:00
6:51 AM,43.0,38.8,85,29.55,10.0,Calm,Calm,-,N/A,,Scattered Clouds,0,2012-11-01 10:51:00
7:51 AM,43.0,37.9,82,29.57,10.0,Calm,Calm,-,N/A,,Clear,0,2012-11-01 11:51:00
8:51 AM,45.0,36.9,73,29.57,10.0,Variable,3.5,-,N/A,,Clear,0,2012-11-01 12:51:00
9:51 AM,47.8,36.9,66,29.57,10.0,Variable,4.6,-,N/A,,Clear,0,2012-11-01 13:51:00
10:34 AM,48.2,37.4,66,29.55,10.0,Variable,4.6,-,N/A,,Mostly Cloudy,0,2012-11-01 14:34:00
10:51 AM,50.0,36.9,61,29.56,7.0,Variable,3.5,-,N/A,,Overcast,0,2012-11-01 14:51:00
10:57 AM,51.8,37.4,58,29.55,1.8,Variable,5.8,-,N/A,,Haze,0,2012-11-01 14:57:00
11:09 AM,50.0,37.4,62,29.55,1.2,Variable,4.6,-,N/A,,Haze,0,2012-11-01 15:09:00
11:13 AM,51.8,37.4,58,29.55,2.0,West,9.2,-,N/A,,Haze,260,2012-11-01 15:13:00
11:22 AM,50.0,37.4,62,29.55,10.0,West,9.2,-,N/A,,Mostly Cloudy,270,2012-11-01 15:22:00
11:33 AM,50.0,37.4,62,29.55,10.0,West,8.1,-,N/A,,Mostly Cloudy,270,2012-11-01 15:33:00
11:51 AM,50.0,36.9,61,29.55,4.0,West,5.8,-,N/A,,Haze,280,2012-11-01 15:51:00
12:51 PM,52.9,36.9,55,29.54,10.0,WSW,9.2,-,N/A,,Scattered Clouds,250,2012-11-01 16:51:00
1:51 PM,52.9,37.9,57,29.52,5.0,Calm,Calm,-,N/A,,Haze,0,2012-11-01 17:51:00
2:51 PM,54.0,37.9,55,29.52,10.0,Variable,4.6,-,N/A,,Mostly Cloudy,0,2012-11-01 18:51:00
3:51 PM,52.0,37.9,59,29.52,10.0,West,4.6,-,N/A,,Mostly Cloudy,280,2012-11-01 19:51:00
4:51 PM,52.0,37.9,59,29.52,10.0,WNW,4.6,-,N/A,,Mostly Cloudy,300,2012-11-01 20:51:00
5:51 PM,50.9,39.9,66,29.53,10.0,Calm,Calm,-,N/A,,Overcast,0,2012-11-01 21:51:00
6:51 PM,50.0,39.9,68,29.54,10.0,Calm,Calm,-,N/A,,Overcast,0,2012-11-01 22:51:00
7:51 PM,48.9,39.9,71,29.55,10.0,Calm,Calm,-,N/A,,Mostly Cloudy,0,2012-11-01 23:51:00
8:51 PM,47.8,39.9,74,29.55,10.0,Calm,Calm,-,N/A,,Partly Cloudy,0,2012-11-02 00:51:00
9:51 PM,47.8,39.9,74,29.56,10.0,Calm,Calm,-,N/A,,Clear,0,2012-11-02 01:51:00
10:51 PM,47.8,39.9,74,29.56,10.0,Calm,Calm,-,0.00,Rain,Light Rain,0,2012-11-02 02:51:00
11:51 PM,46.9,41.0,80,29.56,10.0,Calm,Calm,-,0.00,,Scattered Clouds,0,2012-11-02 03:51:00